{"data":{"norad_id":51636,"intl_designator":"2022-012Q","name":"ONEWEB-0442","alt_names":[],"object_type":"PAYLOAD","status":"ACTIVE","operator":null,"country":"UK","launch_date":"2022-02-10","launch_site_code":"FRGUI","launch_vehicle":null,"mission":null,"orbit_class":"UNKNOWN","rcs_meters":null,"size_class":null,"mass_kg":null,"dimensions":null,"purposes":["comms"],"wikipedia_slug":null,"has_3d_model":false,"image_url":null,"decayed_at":null,"tle_current":{"epoch":"2026-05-25T02:52:49.490400Z","epoch_age_seconds":67918,"freshness":"FRESH","line1":"1 51636U 22012Q   26145.12001725 -.00000236  00000+0 -64144-3 0  9998","line2":"2 51636  87.9155  10.4655 0002305  93.7536 266.3859 13.17649114210630","mean_motion":13.17649114,"eccentricity":0.0002305,"inclination_deg":87.9155,"raan_deg":10.4655,"arg_perigee_deg":93.7536,"mean_anomaly_deg":266.3859,"bstar":-0.00064144,"rev_number":21063,"period_min":109.28554382954,"perigee_km":1191.9675117466,"apogee_km":1195.4581345151,"semimajor_km":7571.8498231309,"source":"CELESTRAK","updated_at":"2026-05-25T13:38:22.578915Z"}}}